User: anonymous   Login
Location: Unspecified
(0.0000°N, 0.0000°E)
Time: 12:10:40
(UTC+00:00)
Language:

NOAA 16 - Orbit

View from above orbital plane
View from above orbital plane
View from above satellite
View from above satellite

Ground track
Ground track

The orbit data is extracted from the following two-line orbital elements,

1 26536U 00055A   18175.91080410 -.00000015 +00000-0 +15300-4 0  9997
2 26536 098.8155 248.9586 0010210 350.1534 009.9437 14.13207082212046
Epoch (UTC): 24 June 2018 21:51:33
Eccentricity: 0.0010210
inclination: 98.8155°
perigee height: 841 km
apogee height: 856 km
right ascension of ascending node: 248.9586°
argument of perigee: 350.1534°
revolutions per day: 14.13207082
mean anomaly at epoch: 9.9437°
orbit number at epoch: 21204

The dashed part of the orbit path shows where the satellite is in the earth's shadow,  

DLR